Preview of NWS' New Version of Forecast
This preview is not operational and should not be used for support decisions.
Latest weather observations around

Everett Snohomish County (KPAE)

Using English Units (Switch to International System of Units)
Date/ Time (PDT) Wind (mph) Vis. (mi) Weather Sky Cond. Temp (°F) Rel. Humidity Wind Chill (°F) Heat Index (°F) Pressure Precip. (in)
Air Dwpt 6 hour Altimeter (inHg) Sea level (inHg) 1 hr 3 hr 6 hr
Max Min
May 25 02:53 N 7 10 Cloudy OVC033 51 45     79%     30.04 30.03      
May 25 02:45 N 7 10 Cloudy OVC031 51 45     79%     30.04        
May 25 02:06 N 6 10 Mostly Cloudy BKN028 BKN060 50 45     83% 48   30.05        
May 25 01:53 NNW 6 10 Partly Cloudy FEW028 SCT060 50 45     83% 48   30.05 30.05      
May 25 00:53 N 7 10 Clear CLR 51 46     83%     30.05 30.05      
May 24 23:53 N 8 10 Clear CLR 51 46     83%     30.05 30.05      
May 24 22:53 NNW 7 10 Clear CLR 52 47     83%     30.05 30.06      
May 24 21:53 NNW 6 10 Clear CLR 53 47     80%     30.05 30.04      
May 24 20:53 NNW 10 10 Clear CLR 53 48     83%     30.04 30.04      
May 24 19:53 NNW 8 10 Clear CLR 57 49     74%     30.04 30.03      
May 24 18:53 NW 6 10 Clear CLR 61 51     70%     30.04 30.03      
May 24 17:53 NNW 6 10 Clear CLR 63 52     67%     30.05 30.04      
May 24 16:53 WNW 6 10 Clear CLR 64 52     65%     30.05 30.05      
May 24 15:53 WSW 8 10 Clear CLR 64 52     65%     30.07 30.06      
May 24 14:53 W 6 10 Partly Cloudy SCT021 62 52     70%     30.08 30.07      
May 24 13:53 S 8 10 Mostly Cloudy BKN026 63 53     70%     30.08 30.08      
May 24 12:53 SW 7 10 Cloudy OVC017 59 53     81%     30.09 30.09      
May 24 12:02 SE 8 10 Cloudy BKN012 OVC025 60 52     75%     30.09        
May 24 12:00 SSE 7 10 Cloudy SCT017 OVC025 60 52     75%     30.09        
May 24 11:53 SSE 8 10 Cloudy SCT008 BKN012 OVC025 59 51     75%     30.09 30.09      
May 24 10:53 SW 7 10 Cloudy SCT008 BKN012 OVC025 56 52     87%     30.08 30.08      
May 24 10:08 6 10 Cloudy SCT008 BKN012 OVC025 57 51     81%     30.07        
May 24 10:00 ESE 7 10 Cloudy FEW012 OVC020 56 51     84%     30.07        
May 24 09:53 SE 7 10 Cloudy SCT008 BKN012 OVC025 56 52     87%     30.07 30.07      
May 24 09:20 SSE 9 10 Cloudy FEW006 SCT009 OVC015 55 51     86%     30.07        
May 24 08:53 SSE 8 10 Cloudy FEW006 BKN009 OVC017 55 52     89%     30.06 30.06      
May 24 07:53 SSE 6 4 Fog/Mist BKN006 OVC013 54 52     93%     30.05 30.04      
May 24 06:53 S 6 9 Cloudy OVC009 54 51     90%     30.03 30.03      
May 24 06:46 S 5 8 Cloudy OVC009 54 52     93%     30.03        
May 24 05:53 SSE 6 10 Cloudy OVC011 55 51     86%     30.01 30.01      
May 24 04:53 S 3 10 Cloudy BKN013 OVC045 55 53     93%     30.01 30      
May 24 04:25 WSW 5 10 Cloudy OVC013 55 52     89%     30        
May 24 03:53 SSE 6 10 Cloudy OVC015 56 52     87%     30 29.99      
May 24 03:20 S 3 10 Cloudy OVC014 56 52     87%     29.99        
May 24 03:08 SSW 3 10 Mostly Cloudy BKN015 BKN055 55 52     89%     29.99        
May 24 02:53 S 3 10 Mostly Clear FEW015 FEW055 55 51     86%     29.98 29.98      
May 24 01:53 E 5 10 Mostly Cloudy FEW015 BKN085 BKN110 56 51     84%     29.97 29.96      
May 24 00:53 E 5 10 Mostly Clear FEW095 56 51     84%     29.95 29.94      
May 23 23:53 ENE 3 10 Clear CLR 56 51     84%     29.93 29.93      
May 23 22:53 NNW 7 10 Clear CLR 56 52     87%     29.9 29.9      
May 23 21:53 NW 6 10 Clear CLR 56 52     87%     29.87 29.87      
May 23 20:53 NNW 9 10 Clear CLR 57 52     83%     29.85 29.84      
May 23 19:53 NNW 13 10 Clear CLR 60 52     75%     29.83 29.82      
May 23 18:53 NNW 8 10 Mostly Clear FEW100 60 53     78%     29.82 29.82      
May 23 17:53 NW 9 10 Partly Cloudy SCT100 63 52     67%     29.82 29.82      
May 23 16:53 NW 9 10 Clear CLR 67 51     57%     29.81 29.81      
May 23 15:53 6 10 Clear CLR 68 53     59%     29.8 29.8      
May 23 14:53 NW 7 10 Clear CLR 67 54     63%     29.8 29.8      
May 23 13:53 3 10 Clear CLR 70 55     59%     29.81 29.8      
May 23 12:53 WSW 6 10 Clear CLR 66 53     63%     29.82 29.81      
May 23 11:53 WSW 6 10 Clear CLR 64 53     67%     29.83 29.83      
May 23 10:53 5 10 Clear CLR 62 53     72%     29.83 29.82      
May 23 09:53 N 6 10 Clear CLR 58 50     75%     29.83 29.83      
May 23 08:53 NNW 7 10 Clear CLR 56 50     80%     29.84 29.84      
May 23 07:53 NW 3 10 Clear CLR 55 51     86%     29.84 29.84      
May 23 06:53 NNW 5 10 Clear CLR 54 50     86%     29.83 29.83      
May 23 05:53 5 10 Clear CLR 53 49     86%     29.83 29.82      
May 23 04:53 N 7 10 Clear CLR 53 48     83%     29.82 29.82      
May 23 03:53 N 6 10 Mostly Clear FEW110 54 48     80%     29.83 29.82      
May 23 02:53 NNW 6 10 Clear CLR 54 48     80%     29.83 29.82      
May 23 01:53 N 7 10 Clear CLR 56 48     75%     29.83 29.83      
May 23 00:53 N 6 10 Clear CLR 57 48     72%     29.84 29.84      
May 22 23:53 N 5 10 Clear CLR 57 47     69%     29.85 29.84      
May 22 22:53 3 10 Clear CLR 56 48     75%     29.86 29.85      
May 22 21:53 NNW 8 10 Clear CLR 57 48     72%     29.86 29.85      
May 22 20:53 N 6 10 Clear CLR 58 50     75%     29.85 29.85      
May 22 19:53 NW 9 10 Clear CLR 63 51     65%     29.85 29.84      
May 22 18:53 NNW 6 10 Clear CLR 67 52     59%     29.85 29.84      
May 22 17:53 6 10 Clear CLR 71 53     53%   70 29.86 29.85      
May 22 16:53 NNW 9 10 Clear CLR 70 54     57%     29.87 29.86      
May 22 15:53 NW 8 10 Clear CLR 69 53     57%     29.88 29.88      
May 22 14:53 NNW 8 10 Clear CLR 69 52     54%     29.9 29.9      
May 22 13:53 7 10 Clear CLR 67 52     59%     29.92 29.91      
May 22 12:53 NNW 8 10 Clear CLR 66 52     61%     29.93 29.93      
May 22 11:53 NNW 6 10 Clear CLR 64 52     65%     29.95 29.95      
May 22 10:53 6 10 Clear CLR 61 53     75%     29.96 29.96      
May 22 09:53 5 10 Clear CLR 60 52     75%     29.97 29.97      
May 22 08:53 3 10 Clear CLR 57 50     77%     29.98 29.98      
May 22 07:53 NW 5 10 Partly Cloudy SCT002 55 50     83%     29.99 29.98      
May 22 07:21 NNW 6 9 Partly Cloudy SCT002 52 50     93%     29.99        
May 22 07:07 NW 6 8 Cloudy OVC002 51 50     96%     29.99        
May 22 06:53 NW 8 10 Partly Cloudy SCT003 52 50     93%     29.99 29.98      
May 22 06:50 NNW 6 10 Mostly Cloudy BKN003 52 50     94%     29.99        
May 22 06:41 NW 5 10 Partly Cloudy SCT004 52 50     93%     29.99        
May 22 05:53 NW 5 10 Clear CLR 50 48     93% 48   29.98 29.98      
May 22 04:53 N 5 10 Clear CLR 50 48     93% 48   29.99 29.98      
May 22 03:53 Calm 10 Clear CLR 50 48     93%     29.99 29.99      
May 22 02:53 N 5 10 Clear CLR 51 48     89%     30 30      
May 22 01:53 NNW 7 10 Clear CLR 51 48     89%     30.01 30.01      
May 22 00:53 NNW 10 10 Clear CLR 51 48     89%     30.01 30.01      
May 21 23:53 NW 8 10 Clear CLR 52 48     86%     30.01 30.01      
May 21 22:53 NNW 10 10 Clear CLR 53 48     83%     30.01 30.01      
May 21 21:53 N 6 10 Clear CLR 54 49     83%     30.02 30.01      
May 21 19:53 NW 3 10 Clear CLR 62 49     62%     30.01 30.01      
May 21 18:53 NW 6 10 Clear CLR 64 49     58%     30.01 30.01      
May 21 16:53 NNW 7 10 Clear CLR 65 50     58%     30.04 30.04      
May 21 08:36 NNW 5 10 Partly Cloudy SCT022 54 47     77%     30.08        
May 21 05:53 NNW 5 10 Cloudy OVC020 50 46     86%     30.07 30.07      
May 20 15:53 5 10 Cloudy SCT010 BKN031 OVC075 60 52     75%     30.06 30.06      
May 20 09:59 NNW 5 1.5 Fog/Mist BKN005 OVC009 51 50     96%     30.06        
May 20 04:35 Calm 10 Cloudy OVC010 52 50     93%     30        
May 19 19:53 W 5 10 Cloudy BKN050 OVC080 58 51     78%     29.96 29.96      
May 19 10:00 3 10 Mostly Clear FEW013 61 53     75%     30.03        
May 19 09:53 NW 3 10 Mostly Cloudy FEW009 BKN013 60 54     80%     30.03 30.02      
May 18 09:53 NNW 3 5 Fog/Mist OVC004 52 51     97%     30.06 30.06      
May 18 06:53 Calm 10 Cloudy OVC006 52 50     93%     30.04 30.04      
May 18 02:53 NW 7 10 Cloudy BKN004 OVC110 52 50     93%     30.04 30.04      
May 17 13:53 SW 10 10 Mostly Cloudy BKN033 61 51     70%     30.07 30.07      
May 17 07:28 SSE 8 10 Cloudy OVC015 53 48     83%     30.1        
May 17 06:16 SSE 8 10 Cloudy BKN014 BKN019 OVC032 53 48     83%     30.09        
May 17 01:53 S 7 10 Cloudy FEW013 OVC035 54 49     83%     30.08 30.07      
May 16 16:53 SW 8 10 Clear CLR 65 51     61%     30.03 30.02      
May 16 14:53 SW 11 10 Clear CLR 65 51     61%     30.03 30.03      
May 14 07:53 SE 3 10 Clear CLR 65 53     65%     29.97 29.96      
Notice The following observation data may not be complete
May 14 05:53 ESE 3 10 Clear CLR   51      %     29.96 29.95      
May 14 02:53 E 8 10 Clear CLR 63 52     67%     29.94 29.93      
May 13 04:53 NNW 7 10 Clear CLR 55 50     83%     29.97 29.97      
May 12 08:17 NNW 5 1.5 Fog/Mist SCT001 51 50     96%     30.19        
May 12 02:53 NNW 5 10 Clear CLR 50 48     93% 48   30.2 30.19      
May 12 01:53 NNW 5 10 Clear CLR 50 47     89% 48   30.2 30.2      
May 11 18:53 NW 6 10 Clear CLR 63 47     56%     30.21 30.21      
Jun 11 21:53 5 10 Clear CLR 56 49     77%     30 30      
Jun 11 20:53 NW 5 10 Clear   58 48     70%     30 29.99      
Jun 11 19:53 NW 6 10 Clear   63 45     52%     30 29.99      
Jun 11 11:53 WSW 7 10 Clear CLR 59 51     75%     30.05 30.05      
Jun 10 23:53 N 6 10 Clear   54 48     80%     29.95 29.95      
Jun 10 16:53 NW 7 10 Clear CLR 61 43     52%     29.87 29.87      
Notice The following observation data may not be complete
Jun 10 02:39   10 Cloudy BKN015 OVC080          %              
Jun 10 01:48   10 Cloudy FEW016 BKN070 OVC085 52 46     82%     29.87        
Jun 09 11:10 Calm 10 Cloudy FEW025 BKN031 OVC080 55 46     72%     29.89        
Jun 09 06:53 ESE 9 10 Cloudy OVC055 50 46     86% 46   29.91 29.91      
Jun 09 02:53 SSE 8 10 Mostly Cloudy BKN070 51 45     79%     29.95 29.94      
Jun 08 07:29 SSE 8 8 Light Rain SCT004 BKN009 BKN045 56 54     93%     29.64   0    
Jun 06 05:53 WNW 3 10 Clear CLR 52 48     86%     30.03 30.02      
Jun 05 22:53 5 10 Clear CLR 53 47     80%     30.08 30.08      
Jun 05 18:53 NW 7 10 Clear CLR 65 47     52%     30.07 30.07